Location: Milevsko
(49.4500°N, 14.3670°E)
Time: 14:51:50
(UTC+01:00)

ISS - Pass Details

Date: 21 March 2019
Orbit: 408 x 411 km, 51.6° (Epoch: 25 March)

Event Time Altitude Azimuth Distance (km) Brightness Sun altitude
Rises 20:25:19 0° 226° (SW) 2,325 0.3 -21.0°
Reaches altitude 10° 20:27:29 10° 218° (SW) 1,467 -0.9 -21.3°
Enters shadow 20:27:57 13° 214° (SW) 1,288 -1.2 -21.3°
